WetterOnline ( http://www.wetteronline.de )

Wetter aktuell Alfeld

Aktuelles Wetter: Alfeld (148m)

6-stündlich | Neueste Meldungen
Ortszeit Temperatur Wetter
Mo, 18.06. 8:00 15.1° C bedeckt
Mo, 18.06. 2:00 15.0° C bewölkt
So, 17.06. 20:00 18.4° C bedeckt
So, 17.06. 14:00 20.2° C bewölkt
So, 17.06. 8:00 16.8° C leicht bewölkt
So, 17.06. 2:00 17.6° C bedeckt
Sa, 16.06. 20:00 22.7° C leicht bewölkt
Sa, 16.06. 14:00 24.0° C wolkig
Ortszeit Temperatur Wetter
Mo, 18.06. 9:30 16.6° C bedeckt
Mo, 18.06. 9:10 16.8° C bedeckt
Mo, 18.06. 9:00 16.6° C bedeckt
Mo, 18.06. 8:50 16.6° C bedeckt
Mo, 18.06. 8:40 16.3° C bedeckt
Mo, 18.06. 8:30 15.8° C bedeckt
Mo, 18.06. 8:00 15.1° C bedeckt
Mo, 18.06. 7:30 14.6° C bedeckt
Mo, 18.06. 7:00 14.1° C bedeckt
Mo, 18.06. 6:30 13.7° C bedeckt
Ortszeit Relative Feuchte Sichtweite
Mo, 18.06. 8:00 74% 30 km
Mo, 18.06. 2:00 69% 35 km
So, 17.06. 20:00 59% 45 km
So, 17.06. 14:00 49% 40 km
So, 17.06. 8:00 68% 22 km
So, 17.06. 2:00 77% 24 km
Sa, 16.06. 20:00 54% 45 km
Sa, 16.06. 14:00 39% 60 km
Ortszeit Relative Feuchte Sichtweite
Mo, 18.06. 9:30 66% 45 km
Mo, 18.06. 9:10 66% -
Mo, 18.06. 9:00 66% 35 km
Mo, 18.06. 8:50 66% -
Mo, 18.06. 8:40 68% -
Mo, 18.06. 8:30 71% 40 km
Mo, 18.06. 8:00 74% 30 km
Mo, 18.06. 7:30 76% 35 km
Mo, 18.06. 7:00 81% 29 km
Mo, 18.06. 6:30 80% 28 km
Ortszeit Niederschlagsmenge Niederschlagsart
Mo, 18.06. 8:00 0.0 l/m2 in 12 Std. -
Mo, 18.06. 2:00 0.0 l/m2 in 6 Std. -
So, 17.06. 20:00 0.0 l/m2 in 12 Std. -
So, 17.06. 14:00 0.0 l/m2 in 6 Std. -
So, 17.06. 8:00 0.1 l/m2 in 12 Std. Regen
So, 17.06. 2:00 0.0 l/m2 in 6 Std. -
Sa, 16.06. 20:00 0.0 l/m2 in 12 Std. -
Sa, 16.06. 14:00 0.0 l/m2 in 6 Std. -
Ortszeit Niederschlagsmenge Niederschlagsart
Mo, 18.06. 9:30 0.0 l/m2 in 1 Std. -
Mo, 18.06. 9:10 keine Meldung -
Mo, 18.06. 9:00 0.0 l/m2 in 1 Std. -
Mo, 18.06. 8:50 keine Meldung -
Mo, 18.06. 8:40 keine Meldung -
Mo, 18.06. 8:30 0.0 l/m2 in 1 Std. -
Mo, 18.06. 8:00 0.0 l/m2 in 1 Std. -
Mo, 18.06. 7:30 0.0 l/m2 in 1 Std. -
Mo, 18.06. 7:00 0.0 l/m2 in 1 Std. -
Mo, 18.06. 6:30 0.0 l/m2 in 1 Std. -
Ortszeit Stärke Spitze Richtung
km/h Bft. km/h Grad Sektor
Mo, 18.06. 8:00 11 2 22 120° SO
Mo, 18.06. 2:00 4 1 22 230° SW
So, 17.06. 20:00 7 2 40 300° NW
So, 17.06. 14:00 18 3 43 260° W
So, 17.06. 8:00 13 3 24 280° W
So, 17.06. 2:00 11 2 25 270° W
Sa, 16.06. 20:00 7 2 25 360° N
Sa, 16.06. 14:00 13 3 28 160° S
Ortszeit Stärke Spitze Richtung
km/h Bft. km/h Grad Sektor
Mo, 18.06. 9:30 14 3 25 240° SW
Mo, 18.06. 9:10 11 2 - 220° SW
Mo, 18.06. 9:00 7 2 19 200° S
Mo, 18.06. 8:50 7 2 - 200° S
Mo, 18.06. 8:40 4 1 - 120° SO
Mo, 18.06. 8:30 9 2 17 130° SO
Mo, 18.06. 8:00 11 2 14 120° SO
Mo, 18.06. 7:30 7 2 11 120° SO
Mo, 18.06. 7:00 7 2 11 110° O
Mo, 18.06. 6:30 7 2 11 120° SO
Ortszeit Untergrenze Bedeckung Gattung
total tief tief mittel hoch
Mo, 18.06. 8:00 2100 m 8/8 8/8 - - -
Mo, 18.06. 2:00 2100 m 7/8 7/8 - - -
So, 17.06. 20:00 3600 m 8/8 8/8 - - -
So, 17.06. 14:00 1440 m 7/8 6/8 - - -
So, 17.06. 8:00 3300 m 3/8 3/8 - - -
So, 17.06. 2:00 1800 m 8/8 8/8 - - -
Sa, 16.06. 20:00 3000 m 2/8 2/8 - - -
Sa, 16.06. 14:00 1800 m 7/8 5/8 - - -
Ortszeit Bedeckungsgrad in Achtel und Wolkenuntergrenze
Mo, 18.06. 9:30 1(1170m) 4(1500m) 8(2100m)
Mo, 18.06. 9:10 2(1500m) 8(2100m)
Mo, 18.06. 9:00 8(2100m) 8(2100m)
Mo, 18.06. 8:50 8(2100m)
Mo, 18.06. 8:40 8(2100m)
Mo, 18.06. 8:30 8(2100m)
Mo, 18.06. 8:00 8(2100m)
Mo, 18.06. 7:30 8(1800m)
Mo, 18.06. 7:00 8(1800m)
Mo, 18.06. 6:30 8(1800m)
Ortszeit Luftdruck NN (hPa) Tendenz (hPa in 3 Std.)
Mo, 18.06. 8:00 1020 + 0,3
Mo, 18.06. 2:00 1020 + 1,0
So, 17.06. 20:00 1018 + 0,6
So, 17.06. 14:00 1017 + 0,1
So, 17.06. 8:00 1016 + 1,1
So, 17.06. 2:00 1015 + 0,5
Sa, 16.06. 20:00 1013 - 0,3
Sa, 16.06. 14:00 1015 - 0,8
Ortszeit Luftdruck NN (hPa) Tendenz (hPa in 3 Std.)
Mo, 18.06. 9:30 1021 + 0,6
Mo, 18.06. 9:10 1021 keine Meldung
Mo, 18.06. 9:00 1020 + 0,1
Mo, 18.06. 8:50 1020 keine Meldung
Mo, 18.06. 8:40 1020 keine Meldung
Mo, 18.06. 8:30 1020 + 0,1
Mo, 18.06. 8:00 1020 + 0,3
Mo, 18.06. 7:30 1020 + 0,5
Mo, 18.06. 7:00 1020 - 0,1
Mo, 18.06. 6:30 1020 + 0,1
Ortszeit Schneehöhe (cm)
Mo, 18.06. 8:00 -
Mo, 18.06. 2:00 -
So, 17.06. 20:00 -
So, 17.06. 14:00 -
So, 17.06. 8:00 -
So, 17.06. 2:00 -
Sa, 16.06. 20:00 -
Sa, 16.06. 14:00 -
Ortszeit Schneehöhe (cm)
Mo, 18.06. 9:30 -
Mo, 18.06. 9:10 -
Mo, 18.06. 9:00 -
Mo, 18.06. 8:50 -
Mo, 18.06. 8:40 -
Mo, 18.06. 8:30 -
Mo, 18.06. 8:00 -
Mo, 18.06. 7:30 -
Mo, 18.06. 7:00 -
Mo, 18.06. 6:30 -
Link zu dieser Seite / Seite empfehlen

Das Wetter in ...